This demonstration page uses our WeatherBlox Daily Observations layout. Learn more.

Left ArrowRight Arrow

39.51506, -84.39828

Hourly Observations for February 21, 2017

Temp ( °F °C ) Dew Point ( °F °C ) Humidity (%) Winds ( mph kmh ) Pressure ( in mb ) Visibility ( mi km ) Precip ( " mm )
10:15 am 10:15 Sunny 57 13.8 41 5.2 56 56 undefined N/A 30.03 1017 10 16 0.00 0.00
10:35 am 10:35 Sunny 57 13.8 41 5 56 56 undefined N/A 30.03 1017 10 16 0.00 0.00
10:55 am 10:55 Sunny 59 14.8 42 5.3 53 53 undefined N/A 30.03 1017 10 16 0.00 0.00
11:15 am 11:15 Sunny 60 15.3 41 5.1 51 51 undefined N/A 30.03 1017 10 16 0.00 0.00
11:35 am 11:35 Sunny 62 16.8 41 4.8 45 45 N 5 7 30.00 1016 10 16 0.00 0.00
11:55 am 11:55 Sunny 62 16.6 41 5 46 46 undefined N/A 30.00 1016 10 16 0.00 0.00
12:15 pm 12:15 Sunny 62 16.6 41 5.1 47 47 undefined N/A 30.00 1016 10 16 0.00 0.00
12:35 pm 12:35 Mostly Cloudy 63 17 42 5.4 47 47 undefined N/A 30.00 1016 10 16 0.00 0.00
12:55 pm 12:55 Partly Cloudy 64 18 42 5.6 44 44 undefined N/A 30.00 1016 10 16 0.00 0.00
1:15 pm 13:15 Sunny 64 18 42 5.4 44 44 undefined N/A 29.97 1015 10 16 0.00 0.00
1:35 pm 13:35 Partly Cloudy 69 20.3 45 7 42 42 undefined N/A 29.97 1015 10 16 0.00 0.00
1:55 pm 13:55 Partly Cloudy 67 19.6 43 6.2 42 42 N 8 13 29.97 1015 10 16 0.00 0.00
2:15 pm 14:15 Mostly Cloudy 67 19.5 44 6.7 44 44 undefined N/A 29.97 1015 10 16 0.00 0.00
2:35 pm 14:35 Mostly Cloudy 67 19.5 44 6.7 44 44 undefined N/A 29.97 1015 10 16 0.00 0.00
2:55 pm 14:55 Mostly Cloudy 67 19.5 44 6.6 43 43 N 7 11 29.94 1014 10 16 0.00 0.00
3:15 pm 15:15 Mostly Cloudy with Drizzle 67 19.2 45 7.4 47 47 undefined N/A 29.94 1014 10 16 0.00 0.00
3:35 pm 15:35 Cloudy 64 18 44 6.5 47 47 undefined N/A 29.94 1014 10 16 0.00 0.00
3:55 pm 15:55 Cloudy with Rain 64 18 44 6.7 48 48 undefined N/A 29.97 1015 10 16 0.00 0.00
4:15 pm 16:15 Cloudy with Light Rain 62 16.6 47 8.6 59 59 undefined N/A 29.97 1015 10 16 0.00 0.00
4:35 pm 16:35 Cloudy with Rain 60 15.8 49 9.3 66 66 undefined N/A 29.94 1014 10 16 0.00 0.00
4:55 pm 16:55 Cloudy with Drizzle 60 15.3 51 10.7 74 74 undefined N/A 29.94 1014 10 16 0.00 0.00
5:15 pm 17:15 Cloudy 60 15.3 51 10.6 74 74 undefined N/A 29.94 1014 10 16 0.00 0.00
5:35 pm 17:35 Cloudy with Drizzle 60 15.3 52 11 76 76 undefined N/A 29.97 1015 10 16 0.00 0.00
5:55 pm 17:55 Cloudy with Drizzle 59 15.2 53 11.4 78 78 undefined N/A 29.97 1015 10 16 0.00 0.00
6:15 pm 18:15 Cloudy with Drizzle 57 13.8 51 10.3 80 80 undefined N/A 30.00 1016 10 16 0.00 0.00
6:35 pm 18:35 Cloudy with Drizzle 57 13.9 50 10.2 79 79 undefined N/A 30.00 1016 10 16 0.00 0.00
6:55 pm 18:55 Cloudy with Drizzle 57 13.8 51 10.5 81 81 undefined N/A 30.00 1016 10 16 0.00 0.00
7:15 pm 19:15 Cloudy 57 13.8 51 10.7 82 82 undefined N/A 30.00 1016 7 11 0.00 0.00
7:35 pm 19:35 Cloudy 55 12.5 49 9.5 82 82 undefined N/A 30.00 1016 7 11 0.00 0.00
7:55 pm 19:55 Cloudy with Drizzle 56 13.2 51 10.4 83 83 undefined N/A 30.00 1016 7 11 0.00 0.00
8:15 pm 20:15 Cloudy with Light Rain 57 13.8 52 10.9 83 83 undefined N/A 30.00 1016 7 11 0.00 0.00
8:35 pm 20:35 Mostly Cloudy with Drizzle 56 13.6 51 10.8 83 83 undefined N/A 30.00 1016 5 8 0.00 0.00
8:55 pm 20:55 Mostly Cloudy with Drizzle 57 13.8 52 11 83 83 undefined N/A 30.00 1016 5 8 0.00 0.00
9:15 pm 21:15 Cloudy with Drizzle 55 12.5 49 9.5 82 82 undefined N/A 30.00 1016 3 5 0.00 0.00
9:35 pm 21:35 Mostly Cloudy with Light Rain 55 12.9 50 10.2 84 84 undefined N/A 30.00 1016 4 6 0.00 0.00
9:55 pm 21:55 Mostly Cloudy with Rain 55 12.5 49 9.7 83 83 undefined N/A 30.00 1016 1 1 0.00 0.00
10:15 pm 22:15 Cloudy with Light Rain 55 12.5 50 9.8 84 84 undefined N/A 30.00 1016 1 1 0.00 0.00
10:35 pm 22:35 Cloudy with Drizzle 55 12.5 50 10 85 85 undefined N/A 30.00 1016 1 2 0.00 0.00
10:55 pm 22:55 Cloudy with Mist and Fog 55 12.5 50 10 85 85 undefined N/A 30.00 1016 1 2 0.00 0.00
11:15 pm 23:15 Cloudy with Drizzle 55 12.5 50 10 85 85 undefined N/A 29.97 1015 1 2 0.00 0.00
11:35 pm 23:35 Cloudy with Light Rain 55 12.5 50 10 85 85 undefined N/A 29.97 1015 1 1 0.00 0.00
11:55 pm 23:55 Cloudy with Fog 55 12.5 50 10 85 85 undefined N/A 29.97 1015 1 1 0.00 0.00

Powered by AerisWeather